Lapse_Rate
6.1 6.0 5.9 6.4 6.0 5.8 6.1 5.3 5.2 5.2 5.5 5.7 5.5 5.5 5.3 5.2 5.4 5.2 5.0 4.9 5.0 4.8 4.8 4.8 4.5 4.4 4.5 4.5 4.7 4.4 4.4 4.5 4.5 4.8 4.7 4.7 4.8 4.7 4.9 4.8 4.8 4.9 5.0 5.4 5.3 5.6 5.6 5.9 6.1
6.6 6.4 6.4 5.8 5.9 6.3 5.9 5.5 5.3 5.2 5.2 5.9 6.0 5.2 5.2 5.0 5.0 5.5 5.3 4.4 5.2 4.9 4.9 4.8 4.7 4.6 4.7 4.7 4.9 4.5 4.5 4.5 4.6 4.5 4.6 4.7 4.7 4.9 4.9 4.7 4.9 5.1 5.0 5.3 5.4 5.5 5.8 5.8 6.1
7.2 7.0 5.8 5.8 6.7 6.3 6.3 6.0 5.6 5.4 5.4 5.6 5.8 5.3 5.6 5.4 5.6 5.8 5.1 4.8 4.8 5.2 5.0 4.9 5.0 4.9 4.8 4.9 5.0 4.8 4.4 4.5 4.8 4.8 4.6 4.6 4.7 4.6 4.8 4.8 4.8 5.0 5.0 5.1 5.3 5.4 5.7 5.8 5.9
6.8 6.1 6.6 7.9 6.6 6.0 6.0 6.0 5.9 6.1 6.2 5.9 5.7 5.3 5.6 5.7 6.0 5.9 6.0 5.1 5.1 5.1 5.2 5.1 5.2 5.1 5.1 5.1 5.1 4.9 4.8 4.6 4.7 5.0 5.0 4.7 4.7 4.7 4.7 4.7 4.8 4.8 4.9 5.0 5.3 5.3 5.5 5.7 5.7
6.0 5.7 7.8 7.3 6.7 6.3 6.0 6.3 6.1 6.2 6.3 6.2 5.7 5.2 5.0 6.0 6.3 6.2 6.2 6.3 6.2 5.7 5.5 5.4 5.5 5.3 5.3 5.2 5.4 5.2 5.0 4.9 4.7 5.0 5.1 4.8 4.9 4.7 4.7 4.7 4.8 4.9 4.9 5.0 5.2 5.4 5.3 5.6 5.7
5.7 7.4 8.8 7.8 6.8 6.6 6.3 6.2 6.3 6.5 6.0 5.9 5.6 5.8 6.0 6.3 6.4 6.3 6.3 6.4 6.6 6.2 5.8 5.5 5.6 5.5 5.5 5.2 5.6 5.6 4.9 5.1 4.9 5.1 5.2 5.0 4.8 4.8 4.7 4.6 4.9 5.1 5.0 5.1 5.2 5.5 5.6 5.6 5.6
6.7 7.9 8.3 7.7 7.3 6.7 6.5 6.4 6.3 6.7 6.3 6.0 6.0 6.3 6.1 5.9 6.3 6.1 6.2 5.7 6.2 6.4 6.1 5.9 5.6 5.6 5.6 5.4 5.5 5.7 5.4 5.0 5.2 5.2 5.2 5.1 4.9 4.9 4.9 4.8 5.0 5.0 5.0 5.1 5.2 5.3 5.4 5.5 5.5
5.9 7.5 8.6 7.8 7.5 7.2 6.7 6.4 6.4 6.4 6.3 6.1 6.4 6.4 6.5 6.5 6.4 5.9 6.3 6.6 6.6 6.6 6.5 6.1 6.0 5.7 5.6 5.5 5.5 5.5 5.5 5.3 5.2 5.2 5.1 5.2 5.2 4.9 5.2 4.9 4.9 5.1 5.1 5.0 5.2 5.3 5.3 5.3 5.3
7.9 8.2 8.9 8.1 7.4 7.0 7.0 7.0 6.7 6.7 7.0 6.6 6.5 6.6 6.7 6.7 7.0 7.1 7.2 7.0 6.7 7.0 6.9 6.6 6.0 5.8 5.8 5.8 5.6 5.5 5.7 5.4 5.3 5.2 5.5 5.0 5.1 5.1 5.2 5.1 4.9 5.0 5.0 5.2 5.1 5.1 5.2 5.2 5.2
8.1 8.2 8.0 7.8 7.4 7.0 7.0 7.0 6.8 6.7 6.8 6.9 6.6 6.1 6.7 6.6 6.6 7.1 7.0 7.2 7.2 7.1 6.9 6.5 6.0 6.2 6.1 5.9 5.5 5.4 5.5 5.6 5.3 5.2 5.3 5.4 5.3 5.1 5.2 5.3 5.2 5.2 5.1 5.2 5.2 5.0 5.0 5.1 5.1
8.6 7.9 7.7 7.5 7.3 7.1 6.9 6.8 6.9 6.8 6.9 7.0 6.6 7.0 6.8 6.6 6.6 6.6 7.0 6.8 7.1 7.0 7.0 6.5 6.0 5.8 5.3 5.7 5.6 5.5 5.6 5.8 5.7 5.5 5.3 5.3 5.3 5.3 5.2 5.3 5.4 5.3 5.3 5.1 5.1 5.3 5.2 5.0 5.2
8.4 7.6 7.6 7.3 7.1 7.1 7.0 6.8 6.8 7.0 7.0 6.9 6.3 6.6 6.7 6.4 6.7 6.8 6.8 7.0 7.1 7.0 6.6 6.4 5.5 5.6 5.3 5.9 5.5 5.2 5.5 5.6 5.1 5.5 5.4 5.5 5.5 5.6 5.5 5.3 5.3 5.3 5.2 5.3 5.1 5.3 5.3 5.3 4.8
9.3 7.8 7.6 7.4 7.2 7.2 7.1 7.2 7.1 7.3 7.2 6.8 6.4 6.1 6.1 6.1 5.9 6.3 6.7 7.4 7.2 6.9 6.8 6.3 6.2 5.9 5.8 5.7 5.4 5.2 5.4 4.8 5.2 5.2 5.5 5.6 5.6 5.7 5.5 5.5 5.5 5.6 5.4 5.2 5.1 5.2 5.0 5.3 4.8
9.3 8.3 7.7 7.7 7.5 7.3 7.5 7.4 7.2 7.2 7.2 7.0 6.4 6.1 6.1 6.1 6.2 6.0 6.3 7.1 6.8 6.9 6.9 6.6 6.5 6.1 6.0 5.9 5.9 5.5 5.3 5.0 5.3 5.2 5.4 5.8 5.7 5.8 5.6 5.4 5.7 5.8 5.5 5.3 5.1 5.1 5.1 5.2 5.4
9.0 8.5 8.0 7.8 7.7 7.7 7.8 7.6 7.3 7.3 7.1 7.0 6.5 6.2 6.1 6.1 6.1 6.1 5.9 6.2 6.6 6.6 6.6 6.7 6.8 6.4 6.1 5.8 5.9 5.8 5.3 5.4 5.7 5.4 5.4 5.8 5.9 6.0 5.9 5.7 5.2 5.6 5.4 5.4 5.3 5.1 5.2 5.5 5.2
9.1 8.7 8.7 8.4 8.1 8.1 7.8 7.8 7.9 7.5 7.1 6.8 6.5 6.3 6.3 6.2 6.2 6.1 5.9 5.8 6.4 6.4 6.5 6.4 6.4 6.3 6.1 6.1 6.2 6.1 5.9 5.4 5.5 5.7 5.7 5.7 5.8 5.8 5.6 5.9 5.6 5.3 5.1 5.1 5.2 5.2 5.3 5.2 5.5
7.7 7.4 7.9 8.6 8.5 8.1 7.6 7.1 8.0 7.5 7.2 6.9 6.6 6.3 6.2 6.2 6.2 6.1 5.8 5.6 5.5 5.7 6.3 6.4 6.0 6.2 6.3 6.4 6.2 6.0 5.8 5.7 5.5 5.6 5.9 6.0 6.1 6.1 6.2 5.9 5.6 5.5 5.2 5.0 5.1 5.2 5.2 5.3 5.1
7.6 8.0 6.8 6.8 8.0 9.0 8.0 8.0 7.9 7.5 7.3 7.1 6.9 6.5 6.3 6.1 6.1 6.0 5.8 5.7 5.5 5.2 6.0 5.9 5.7 5.3 5.8 6.0 5.9 6.0 5.7 5.6 5.5 5.5 6.2 6.0 6.0 5.9 5.9 5.9 5.7 5.3 5.2 5.5 5.3 5.1 5.2 5.5 5.6
8.2 7.3 7.0 6.5 8.3 8.4 8.9 8.4 8.2 7.6 7.6 7.4 7.2 6.8 6.4 6.3 6.1 5.9 5.7 5.6 5.6 5.4 6.0 5.6 5.8 5.3 6.1 6.2 5.8 5.9 5.9 5.9 5.9 5.7 5.8 5.9 5.9 6.1 6.1 6.1 5.7 5.1 5.3 4.6 5.6 5.3 5.2 5.5 5.7
8.5 7.3 8.7 8.2 8.8 8.8 8.8 9.2 8.8 7.9 7.8 7.7 7.3 6.9 6.7 6.4 6.3 5.9 5.5 5.4 5.3 5.2 5.9 5.9 5.8 6.2 6.1 6.2 6.3 6.2 5.5 6.1 5.5 5.9 5.9 5.9 5.8 6.1 6.2 6.0 5.3 5.3 5.2 5.2 5.2 5.3 5.5 5.7 5.5
9.4 9.7 9.3 8.7 9.0 8.7 8.7 8.6 6.8 8.4 8.1 7.9 7.6 7.2 6.9 6.6 6.4 6.0 5.5 5.3 5.2 5.3 6.1 6.2 6.1 6.4 6.3 6.4 6.3 5.6 5.7 6.4 5.5 5.6 5.7 5.8 6.0 6.1 5.9 5.8 5.6 5.3 5.5 5.6 5.3 5.4 5.6 5.8 5.7
9.6 9.8 9.4 9.2 9.5 9.5 8.9 8.8 8.6 8.7 8.0 8.2 7.9 7.7 7.3 6.8 6.5 6.1 5.8 5.6 5.4 5.3 5.8 6.3 6.3 6.4 6.4 6.3 6.3 6.2 6.3 6.5 6.1 4.9 5.3 5.7 5.8 5.8 5.9 5.8 5.8 5.4 5.3 5.4 5.3 5.6 5.7 5.9 5.5
9.6 9.0 9.3 9.6 9.7 9.2 8.1 8.2 7.8 8.4 8.6 8.3 7.9 7.9 7.7 7.2 6.7 6.4 6.0 5.6 5.5 5.6 5.8 6.0 6.2 6.3 6.5 6.5 6.4 6.3 6.4 6.4 6.0 5.5 5.2 6.1 6.1 6.3 6.2 5.9 5.7 5.3 5.9 5.5 6.0 5.2 5.7 5.6 5.4
9.6 9.7 9.6 9.2 9.5 9.7 9.6 8.1 6.8 6.7 7.4 7.2 8.4 8.0 7.8 7.5 7.0 6.5 6.3 6.1 5.8 5.9 5.7 5.7 6.2 6.2 6.5 6.5 6.6 6.4 6.3 6.4 5.6 5.3 5.9 5.6 6.2 6.1 6.1 6.1 5.8 5.6 5.8 5.7 5.5 5.6 5.9 6.0 6.1
9.7 9.7 9.7 9.7 9.7 9.7 9.6 8.3 8.3 8.0 7.8 7.9 8.3 8.3 8.0 7.7 7.2 7.0 6.7 6.5 6.2 6.0 5.9 5.8 6.0 6.3 6.3 6.6 6.7 6.6 6.5 6.3 6.4 6.5 6.0 6.4 6.4 6.3 6.0 6.1 6.0 6.0 6.0 6.0 5.9 6.1 6.1 6.1 6.0
9.6 9.6 9.6 9.3 9.6 9.7 9.4 7.4 7.4 8.4 8.6 8.7 9.3 8.9 8.3 7.9 7.7 7.3 6.9 6.8 6.6 6.3 6.0 5.7 6.0 6.4 6.3 6.5 6.4 6.4 6.5 6.4 6.4 6.1 6.4 6.3 6.0 5.9 5.8 6.0 6.1 6.0 6.3 6.3 6.3 6.4 6.6 6.5 6.3
9.2 9.6 9.6 9.6 9.6 9.1 9.1 8.1 8.4 8.6 8.8 8.8 9.5 9.3 8.7 8.2 7.9 7.6 7.3 7.0 7.0 6.7 6.3 6.2 6.2 6.5 6.8 6.7 6.6 6.6 6.5 6.4 6.4 6.1 6.0 5.3 5.8 5.3 5.3 6.3 6.0 6.2 6.5 6.5 6.6 6.3 6.5 6.3 6.2
9.0 9.6 9.7 9.6 9.5 9.0 9.0 8.6 8.2 8.2 8.7 9.2 9.6 9.4 8.5 8.3 8.0 7.9 7.5 7.1 7.1 6.8 6.5 6.3 7.0 7.1 7.0 6.9 7.0 7.1 6.9 6.7 6.7 6.5 5.2 5.8 6.1 5.8 5.5 6.6 6.4 6.1 6.3 6.6 6.5 6.5 6.5 6.3 6.5
9.7 9.2 9.5 9.6 9.7 9.8 8.9 8.3 9.5 9.6 9.3 9.7 9.7 9.5 9.2 8.3 8.0 8.0 7.7 7.2 7.1 6.9 6.7 6.6 7.6 7.3 7.4 7.3 7.4 7.4 7.3 6.9 6.7 6.5 6.2 6.1 6.1 6.1 6.6 6.2 6.5 6.3 6.4 6.5 6.7 6.7 6.5 6.4 6.5
9.7 9.7 9.6 9.8 9.6 9.6 9.6 9.3 9.0 9.4 9.7 9.7 9.7 9.5 9.6 8.9 8.0 8.0 7.9 7.5 7.3 7.0 6.9 7.4 7.8 7.4 7.5 7.3 7.1 7.2 7.4 7.1 6.8 6.2 6.1 5.7 6.2 5.9 6.3 6.6 6.3 6.2 6.4 6.4 6.6 6.5 6.5 6.4 6.4
Wind_Speed
16 14 7 3 2 1 7 7 14 16 11 9 5 4 16 8 5 12 14 12 21 18 20 17 16 16 15 14 13 11 11 11 13 12 13 13 12 13 13 12 11 12 14 14 15 15 16 15 16
13 12 5 3 1 7 5 14 11 13 16 12 7 3 17 15 13 15 12 19 21 19 21 18 15 15 15 14 12 11 11 11 12 12 12 12 12 11 12 11 12 14 16 16 15 15 16 15 13
15 15 2 3 2 6 13 14 14 19 11 9 3 3 10 15 12 14 13 16 20 19 23 19 16 15 14 14 11 12 10 9 10 11 11 12 12 13 14 13 15 17 17 17 16 16 16 14 12
9 8 7 3 12 14 14 13 18 14 9 5 2 13 14 12 11 18 13 14 20 18 23 20 17 16 13 12 10 11 9 7 8 10 10 10 11 11 12 16 16 17 18 17 16 16 15 13 10
9 6 2 15 15 17 14 16 16 10 9 9 16 17 18 17 19 17 13 12 16 18 21 19 17 15 12 10 8 9 8 7 6 8 8 7 8 8 10 15 16 17 16 16 16 16 14 11 7
2 5 5 12 19 14 14 11 16 14 16 11 18 15 8 18 22 18 17 16 17 18 20 18 16 15 13 11 7 8 8 5 3 4 5 4 4 5 7 11 14 15 16 14 14 14 13 9 3
15 3 13 12 12 16 12 15 6 13 16 18 19 10 5 17 20 19 18 15 18 23 20 17 16 14 13 11 8 6 5 5 2 1 2 3 3 3 6 7 11 13 14 14 13 11 10 7 2
4 13 13 11 10 9 14 17 13 13 14 20 23 10 14 18 19 16 16 14 13 16 15 16 17 15 14 11 10 7 6 6 5 5 1 3 6 1 7 9 10 12 12 13 12 11 10 7 3
6 4 9 14 12 8 5 13 15 16 13 16 11 21 24 23 20 17 13 13 12 13 14 16 17 17 16 16 13 12 10 10 9 7 6 9 14 9 11 9 13 14 13 12 12 11 11 9 8
13 3 13 13 16 12 13 12 13 12 12 10 21 21 22 22 19 18 16 15 15 9 11 13 11 14 14 11 15 13 12 15 13 13 14 15 14 13 8 13 13 13 14 15 13 11 11 11 11
13 10 14 13 14 15 12 13 13 13 11 14 22 23 22 22 18 16 16 16 15 14 11 11 10 13 12 12 12 12 12 12 12 13 16 11 10 8 10 11 11 11 14 12 13 12 11 13 8
17 15 15 12 13 13 13 17 14 13 17 17 20 21 21 21 19 18 15 17 13 11 7 6 9 4 8 14 9 6 6 6 7 11 15 8 6 7 8 6 7 11 13 11 13 12 9 4 16
16 16 13 15 13 13 14 12 13 5 14 19 22 20 20 19 18 20 15 12 13 13 12 10 8 5 3 2 4 8 5 2 6 8 6 12 7 4 7 8 13 13 12 14 10 6 8 7 9
13 17 14 13 13 12 11 12 10 8 8 19 20 19 18 18 17 18 19 17 14 12 13 15 11 7 7 4 2 4 3 2 4 9 8 6 6 8 7 6 7 13 14 11 12 9 5 7 6
13 12 12 12 13 7 11 8 11 12 11 16 18 18 18 17 17 16 18 17 13 14 13 11 7 12 8 7 4 4 5 5 7 8 10 7 4 8 7 4 4 9 12 8 10 10 9 4 5
14 8 6 12 12 8 7 10 10 13 13 15 17 16 16 17 17 14 14 18 16 15 13 12 14 15 11 7 6 7 5 6 8 8 13 13 9 8 6 4 5 7 4 0 5 2 2 3 3
13 6 19 9 13 17 9 11 14 15 15 15 16 16 16 15 16 15 15 15 18 14 15 14 11 16 13 9 6 6 7 6 4 13 11 15 12 11 8 4 7 10 5 3 4 3 2 2 2
5 2 12 17 9 16 17 17 17 16 17 16 16 17 16 16 17 16 15 14 16 14 13 9 9 9 10 8 4 4 4 3 6 3 10 13 10 12 10 7 9 9 3 4 3 4 3 0 3
27 19 19 32 16 18 25 24 19 18 16 17 17 17 17 17 17 17 15 15 16 16 15 12 10 11 9 5 7 3 5 2 6 5 13 11 9 5 8 4 6 5 5 5 8 5 5 1 3
24 32 23 25 22 13 13 16 20 21 18 18 18 18 18 18 18 17 16 16 16 15 15 12 10 10 6 6 5 7 7 4 3 3 3 9 12 10 5 4 2 6 4 2 3 4 3 2 4
15 13 8 15 13 12 6 19 7 3 17 16 17 19 19 19 19 20 19 17 15 15 14 12 7 10 8 7 5 3 3 6 6 3 8 5 10 9 8 7 4 4 7 3 2 5 5 2 5
15 9 9 11 5 8 4 7 4 13 19 16 18 18 19 20 20 21 21 20 18 16 16 15 12 12 9 8 6 5 4 5 6 5 5 5 9 11 12 8 7 5 2 3 4 6 3 3 4
16 2 10 11 9 6 11 4 7 12 11 20 18 19 19 21 21 22 22 20 20 18 16 16 14 12 10 9 6 6 6 4 2 6 11 5 6 10 9 6 4 6 4 4 7 6 5 4 2
16 14 13 13 12 13 20 15 7 8 26 23 19 19 19 22 22 20 20 20 16 17 17 17 16 13 10 11 8 7 9 8 2 5 14 7 4 6 6 6 4 6 7 10 10 8 5 3 2
18 12 11 11 12 13 19 12 10 19 13 23 23 19 19 20 21 20 20 19 18 18 18 16 18 15 13 12 10 8 7 7 8 8 4 4 2 2 3 6 5 3 6 5 3 3 2 3 2
20 14 13 16 14 7 15 7 4 24 24 20 23 21 19 20 20 21 18 16 19 18 17 15 18 15 15 13 11 8 8 5 4 2 5 2 4 6 16 6 6 4 6 2 5 5 4 5 4
22 16 20 23 23 3 10 7 4 18 20 16 15 22 19 19 19 21 21 18 20 17 16 15 18 16 15 14 10 10 8 7 5 4 8 14 16 9 11 6 6 6 5 4 2 3 5 5 4
22 18 16 13 20 13 8 2 7 22 23 12 13 16 18 20 19 20 19 18 17 18 17 19 18 16 15 14 12 11 10 8 7 4 17 17 12 17 14 9 13 4 3 1 3 5 5 3 3
13 17 21 18 14 15 7 9 8 24 25 7 12 10 20 21 19 19 18 17 16 17 16 16 17 15 14 14 14 12 11 11 7 5 8 11 11 8 9 9 14 7 5 6 5 5 3 5 2
20 20 21 13 16 15 14 10 8 11 13 9 4 10 14 19 20 17 18 19 18 17 15 15 16 15 14 14 13 12 12 10 11 8 7 18 10 7 6 13 6 4 5 4 4 4 2 3 4
Wind_Direction
165 187 213 262 288 154 95 95 127 118 105 99 125 85 81 90 46 104 114 130 117 121 126 126 128 126 122 116 109 108 101 89 85 75 68 71 85 104 99 95 111 116 110 111 109 108 108 105 102
180 183 204 277 245 93 83 132 96 97 111 102 89 16 85 88 96 104 136 120 118 134 130 130 125 124 123 121 119 110 103 91 84 81 73 69 67 92 100 100 103 117 113 116 110 112 107 102 105
177 204 238 216 190 99 115 118 116 109 125 97 48 8 74 119 99 132 133 128 135 131 117 125 123 126 126 124 121 108 97 91 94 86 77 71 61 75 102 95 105 115 117 119 110 106 111 113 109
210 214 244 53 94 115 124 123 121 108 78 61 306 74 101 116 113 131 141 119 112 115 118 129 131 128 129 126 122 111 107 102 100 95 81 73 64 63 94 102 111 116 116 115 110 109 109 106 116
235 256 188 87 85 117 131 135 124 124 118 139 125 107 90 110 127 133 139 124 121 123 127 130 133 132 132 128 135 126 112 99 83 86 86 81 78 69 62 110 115 121 120 120 116 108 104 105 115
145 273 84 84 112 112 118 157 139 142 142 173 112 110 75 132 136 150 160 160 121 127 129 137 137 135 138 136 139 127 124 115 98 91 93 91 101 101 91 111 124 128 127 128 120 117 112 110 105
250 219 83 93 108 127 145 117 181 153 138 143 140 114 163 148 148 156 169 145 143 141 135 137 145 143 144 143 156 149 155 147 155 184 132 79 74 140 129 121 130 137 135 139 139 132 126 122 101
288 253 119 135 108 88 147 150 197 139 139 126 139 143 162 159 159 142 132 116 116 126 143 155 147 159 164 163 180 183 196 201 210 223 170 30 358 311 158 150 151 147 148 150 153 157 157 155 191
182 295 110 117 131 139 151 144 111 108 126 151 121 142 147 145 147 135 146 143 148 154 155 165 164 167 190 168 183 197 199 220 216 221 198 131 273 262 166 160 159 154 159 157 156 162 169 175 195
117 164 77 86 118 136 149 124 124 140 154 116 124 122 137 152 153 151 164 158 157 159 171 174 169 180 184 171 154 199 203 208 205 209 175 178 210 220 158 158 161 170 162 164 168 174 185 191 189
74 88 108 112 122 139 142 131 160 139 139 143 131 144 152 154 155 164 171 163 172 173 192 170 189 177 164 142 175 197 214 224 201 157 165 182 157 158 140 148 158 170 172 176 177 188 203 208 241
111 112 101 121 132 131 149 154 161 183 140 133 140 151 158 165 171 166 180 161 179 172 176 244 153 146 67 151 188 200 180 217 171 186 164 158 140 135 155 170 179 176 181 183 184 188 210 287 191
117 116 127 129 151 139 148 166 147 172 146 146 146 158 165 173 179 158 178 156 175 169 176 215 150 134 110 270 344 146 189 117 161 134 144 137 145 150 166 197 186 197 193 179 185 193 187 234 254
129 126 134 154 154 144 160 142 172 145 185 149 155 167 173 180 181 163 169 168 146 176 195 182 165 144 185 212 232 102 73 271 23 158 146 134 174 146 175 196 205 175 188 205 166 173 184 241 238
107 126 153 154 157 175 136 136 227 157 162 160 167 173 176 186 181 174 167 152 174 179 184 134 161 159 200 197 197 138 216 185 219 160 159 141 182 145 181 196 210 204 176 170 178 189 185 209 247
188 42 165 156 177 148 209 168 170 163 169 169 171 178 179 185 179 173 176 160 176 188 154 176 190 163 179 179 175 184 196 186 220 170 167 168 169 180 201 206 178 114 105 63 127 156 214 203 95
46 119 266 227 194 145 86 304 159 172 178 176 177 178 183 186 186 176 185 174 165 181 166 176 208 161 168 159 192 186 194 218 199 192 175 151 170 171 209 213 152 153 168 181 150 170 180 293 82
299 5 241 270 249 159 153 230 228 181 183 180 184 180 187 187 189 171 184 187 161 157 153 195 188 135 156 153 211 172 220 179 202 203 155 164 173 177 198 214 158 171 142 176 196 153 183 256 155
197 210 212 237 212 230 181 203 173 183 191 182 187 186 190 193 184 168 185 187 162 158 161 194 179 147 152 157 191 173 219 196 184 193 174 168 152 187 206 279 148 167 184 129 182 170 159 205 135
199 203 231 191 188 205 197 229 171 173 195 191 192 188 193 190 183 169 183 185 174 162 164 180 178 147 167 189 194 180 197 186 36 6 241 174 161 197 216 212 238 185 157 151 129 140 151 142 179
231 264 137 148 226 217 130 252 204 151 187 207 198 195 190 190 190 181 183 184 186 166 162 171 199 155 181 227 205 147 117 122 172 191 249 196 157 182 205 193 162 182 90 38 322 200 194 142 187
253 258 181 200 241 223 184 263 355 14 325 206 209 205 188 190 195 186 180 193 186 169 168 170 183 163 186 223 210 177 214 215 215 169 174 141 188 211 178 197 165 110 134 175 267 255 180 172 201
268 289 274 286 244 179 199 188 304 355 300 269 223 209 201 182 191 194 189 187 186 174 175 168 172 171 187 211 244 155 219 211 329 89 40 248 199 230 174 168 167 135 147 221 229 230 186 186 203
257 260 229 251 271 268 259 168 185 180 222 275 210 222 203 185 188 197 192 179 189 175 174 170 169 178 192 191 203 200 215 241 187 125 169 198 192 202 151 159 169 178 166 194 214 197 161 202 321
248 257 262 251 234 245 250 83 175 176 185 237 255 195 201 199 184 187 194 182 177 178 176 173 168 172 184 188 192 199 238 244 141 187 128 152 194 15 206 149 161 211 212 179 151 142 220 206 246
237 227 243 249 245 268 9 104 149 199 201 227 205 179 192 191 184 186 191 184 172 178 178 169 163 169 176 188 190 199 211 239 260 170 111 172 47 38 352 245 154 207 218 244 174 185 224 171 189
248 216 243 266 280 90 263 81 116 241 233 207 191 160 176 184 191 181 181 190 172 174 170 155 160 168 176 190 189 192 193 232 221 249 157 80 70 44 280 316 292 199 191 206 154 231 217 167 184
228 254 241 233 263 282 289 88 216 219 229 225 167 162 163 178 191 178 178 185 175 171 168 148 159 170 177 191 188 189 193 204 250 247 108 124 136 181 202 274 282 244 156 182 242 281 223 165 243
211 237 255 272 267 254 198 253 207 192 224 159 154 172 162 172 181 180 173 175 174 168 167 154 162 165 180 197 184 192 190 190 209 247 130 148 167 209 165 207 246 203 189 192 218 251 185 215 252
240 218 234 248 257 272 278 113 134 208 297 161 228 131 155 160 170 184 173 170 172 165 159 164 165 174 183 197 178 185 186 187 180 214 179 150 181 201 202 218 200 221 171 198 204 244 18 192 233